This is the latest recevied weather packets stored in our database for station/object KI8L. If no packets are shown the sender has not sent any weather packets the latest 10 day(s).
| Time | Temp. | Humidity | Pressure | Rain* | Wind** | Luminosity | Snow |
|---|---|---|---|---|---|---|---|
| 1778075735 | 8.33° C | 88% | 1013 hPa | 0 mm | - | 211 W/m² | - |
| 1778075431 | 8.33° C | 89% | 1013.4 hPa | 0 mm | - | 178 W/m² | - |
| 1778075127 | 8.33° C | 90% | 1013.2 hPa | 0 mm | - | 171 W/m² | - |
| 1778074824 | 8.33° C | 92% | 1013.1 hPa | 0 mm | - | 177 W/m² | - |
| 1778074521 | 7.78° C | 94% | 1013.1 hPa | 0 mm | - | 149 W/m² | - |
| 1778074218 | 7.78° C | 94% | 1013.1 hPa | 0 mm | - | 116 W/m² | - |
| 1778073915 | 7.78° C | 94% | 1013 hPa | 0 mm | - | 97 W/m² | - |
| 1778073612 | 7.78° C | 96% | 1012.9 hPa | 0 mm | - | 107 W/m² | - |
| 1778073309 | 7.22° C | 97% | 1012.7 hPa | 0 mm | - | 105 W/m² | - |
| 1778073006 | 7.22° C | 97% | 1012.6 hPa | 0 mm | - | 99 W/m² | - |
| 1778072702 | 7.22° C | 98% | 1012.6 hPa | 0 mm | - | 79 W/m² | - |
| 1778072400 | 7.22° C | 97% | 1012.3 hPa | 0 mm | - | 77 W/m² | - |
| 1778072098 | 7.22° C | 98% | 1012.3 hPa | 0 mm | - | 80 W/m² | - |
| 1778071795 | 7.22° C | 98% | 1012.3 hPa | 0 mm | - | 71 W/m² | - |
| 1778071493 | 7.22° C | 97% | 1012.4 hPa | 0 mm | - | 56 W/m² | - |
| 1778071191 | 7.22° C | 98% | 1012.1 hPa | 0 mm | - | 43 W/m² | - |
| 1778070889 | 7.22° C | 99% | 1011.8 hPa | 0 mm | - | 83 W/m² | - |
| 1778070586 | 7.22° C | 99% | 1012 hPa | 0 mm | - | 106 W/m² | - |
| 1778070283 | 6.67° C | 99% | 1012.1 hPa | 0 mm | - | 109 W/m² | - |
| 1778069981 | 6.67° C | 99% | 1011.8 hPa | 0 mm | - | 71 W/m² | - |
| 1778069678 | 6.67° C | 99% | 1011.7 hPa | 0 mm | - | 70 W/m² | - |
| 1778069375 | 7.22° C | 99% | 1011.7 hPa | 0 mm | - | 106 W/m² | - |
| 1778069072 | 6.67° C | 99% | 1011.4 hPa | 0 mm | - | 91 W/m² | - |
| 1778068769 | 6.67° C | 99% | 1011.6 hPa | 0 mm | - | 80 W/m² | - |
| 1778068467 | 6.67° C | 99% | 1011.6 hPa | 0 mm | - | 60 W/m² | - |
* Rain latest hour (hover to see other rain measurements)
** Current wind speed in m/s (hover to see current wind gust speed)